TimeBST,TemperatureF,Dew PointF,Humidity,Sea Level PressureIn,VisibilityMPH,Wind Direction,Wind SpeedMPH,Gust SpeedMPH,PrecipitationIn,Events,Conditions,WindDirDegrees,DateUTC
12:20 AM,41.0,39.2,93,29.62,-9999.0,WNW,5.8,-,N/A,,Clear,290,2012-10-14 23:20:00
12:50 AM,41,39,88,29.65,10,West,3.5,,,,,270,2012-10-14 23:50:00
12:50 AM,41.0,39.2,93,29.62,-9999.0,West,4.6,-,N/A,,Clear,280,2012-10-14 23:50:00
1:20 AM,41.0,39.2,93,29.65,6.2,WNW,3.5,-,N/A,,Unknown,300,2012-10-15 00:20:00
1:50 AM,41.0,39.2,93,29.65,6.2,West,3.5,-,N/A,,Unknown,280,2012-10-15 00:50:00
2:20 AM,39.2,37.4,93,29.65,6.2,Variable,2.3,-,N/A,,Unknown,0,2012-10-15 01:20:00
2:50 AM,41.0,39.2,93,29.65,-9999.0,West,3.5,-,N/A,,Clear,280,2012-10-15 01:50:00
3:20 AM,39.2,37.4,93,29.65,-9999.0,West,3.5,-,N/A,,Clear,280,2012-10-15 02:20:00
3:50 AM,37,36,95,29.65,7,West,1.2,,,,,280,2012-10-15 02:50:00
3:50 AM,37.4,35.6,93,29.65,-9999.0,SSE,2.3,-,N/A,,Clear,160,2012-10-15 02:50:00
4:20 AM,37.4,37.4,100,29.65,-9999.0,SSE,3.5,-,N/A,,Clear,160,2012-10-15 03:20:00
4:50 AM,39.2,37.4,93,29.65,-9999.0,South,4.6,-,N/A,,Clear,180,2012-10-15 03:50:00
5:20 AM,39.2,37.4,93,29.62,-9999.0,South,4.6,-,N/A,,Clear,170,2012-10-15 04:20:00
5:50 AM,41.0,39.2,93,29.62,-9999.0,Variable,2.3,-,N/A,,Clear,0,2012-10-15 04:50:00
6:20 AM,41.0,39.2,93,29.62,-9999.0,Variable,3.5,-,N/A,,Clear,0,2012-10-15 05:20:00
6:50 AM,42,39,87,29.64,12,SW,2.3,,,Rain,Rain,220,2012-10-15 05:50:00
6:50 AM,41.0,39.2,93,29.62,6.2,SSW,4.6,-,N/A,,Scattered Clouds,200,2012-10-15 05:50:00
7:20 AM,41.0,39.2,93,29.62,6.2,SW,5.8,-,N/A,,Partly Cloudy,220,2012-10-15 06:20:00
7:50 AM,41.0,39.2,93,29.62,6.2,SW,6.9,-,N/A,,Partly Cloudy,220,2012-10-15 06:50:00
8:20 AM,42.8,39.2,87,29.62,-9999.0,South,5.8,-,N/A,,Clear,190,2012-10-15 07:20:00
8:50 AM,42.8,41.0,93,29.62,6.2,South,4.6,-,N/A,,Partly Cloudy,190,2012-10-15 07:50:00
9:20 AM,44.6,41.0,87,29.62,-9999.0,SSW,6.9,-,N/A,,Clear,210,2012-10-15 08:20:00
9:50 AM,47,42,77,29.63,10,SSW,8.1,,,Rain,Light Rain Showers,200,2012-10-15 08:50:00
9:50 AM,46.4,42.8,87,29.62,-9999.0,SSW,9.2,-,N/A,,Clear,210,2012-10-15 08:50:00
10:20 AM,48.2,42.8,82,29.62,6.2,SW,10.4,-,N/A,,Partly Cloudy,220,2012-10-15 09:20:00
10:50 AM,50.0,44.6,82,29.62,6.2,SSW,9.2,-,N/A,,Partly Cloudy,210,2012-10-15 09:50:00
11:20 AM,50.0,44.6,82,29.62,6.2,SW,10.4,-,N/A,,Partly Cloudy,230,2012-10-15 10:20:00
11:50 AM,51.8,46.4,82,29.59,6.2,WSW,11.5,-,N/A,,Partly Cloudy,240,2012-10-15 10:50:00
12:20 PM,53.6,44.6,72,29.59,6.2,WSW,13.8,-,N/A,,Scattered Clouds,250,2012-10-15 11:20:00
12:50 PM,54,46,66,29.60,25,WSW,12.7,,,Rain,Rain,240,2012-10-15 11:50:00
12:50 PM,53.6,44.6,72,29.59,6.2,WSW,13.8,-,N/A,,Scattered Clouds,240,2012-10-15 11:50:00
1:20 PM,55.4,46.4,72,29.59,6.2,WSW,11.5,-,N/A,,Partly Cloudy,240,2012-10-15 12:20:00
1:50 PM,55.4,46.4,72,29.59,6.2,WSW,12.7,-,N/A,,Partly Cloudy,250,2012-10-15 12:50:00
2:20 PM,57.2,42.8,59,29.59,6.2,WSW,17.3,-,N/A,,Partly Cloudy,250,2012-10-15 13:20:00
2:50 PM,55.4,41.0,58,29.59,6.2,West,19.6,-,N/A,,Partly Cloudy,260,2012-10-15 13:50:00
3:20 PM,53.6,44.6,72,29.59,6.2,WSW,13.8,-,N/A,Rain,Light Rain Showers,250,2012-10-15 14:20:00
3:50 PM,53,45,67,29.59,25,West,9.2,,,Rain,Rain,260,2012-10-15 14:50:00
3:50 PM,53.6,44.6,72,29.59,6.2,West,9.2,-,N/A,,Partly Cloudy,260,2012-10-15 14:50:00
4:20 PM,55.4,46.4,72,29.59,6.2,West,8.1,-,N/A,,Partly Cloudy,260,2012-10-15 15:20:00
4:50 PM,55.4,44.6,67,29.59,6.2,West,5.8,-,N/A,,Scattered Clouds,270,2012-10-15 15:50:00
5:20 PM,53.6,44.6,72,29.56,6.2,Variable,3.5,-,N/A,,Partly Cloudy,0,2012-10-15 16:20:00
5:50 PM,55.4,44.6,67,29.56,6.2,SW,9.2,-,N/A,,Partly Cloudy,220,2012-10-15 16:50:00
6:20 PM,55.4,46.4,72,29.56,6.2,SSW,11.5,-,N/A,,Partly Cloudy,210,2012-10-15 17:20:00
6:50 PM,55,48,69,29.59,19,SW,15.0,,,Rain,Light Rain Showers,230,2012-10-15 17:50:00
6:50 PM,53.6,48.2,82,29.59,6.2,SW,15.0,-,N/A,,Partly Cloudy,230,2012-10-15 17:50:00
7:20 PM,53.6,48.2,82,29.59,-9999.0,SW,12.7,-,N/A,,Clear,230,2012-10-15 18:20:00
7:50 PM,51.8,48.2,88,29.56,6.2,SW,9.2,-,N/A,,Partly Cloudy,220,2012-10-15 18:50:00
8:20 PM,51.8,48.2,88,29.56,-9999.0,South,8.1,-,N/A,,Clear,190,2012-10-15 19:20:00
8:50 PM,51.8,48.2,88,29.56,6.2,South,9.2,-,N/A,Rain,Light Rain Showers,190,2012-10-15 19:50:00
9:20 PM,51.8,48.2,88,29.56,-9999.0,South,9.2,-,N/A,,Clear,190,2012-10-15 20:20:00
9:50 PM,53,48,78,29.55,17,South,9.2,,,Rain,Rain,180,2012-10-15 20:50:00
9:50 PM,53.6,48.2,82,29.53,-9999.0,South,9.2,-,N/A,,Clear,180,2012-10-15 20:50:00
10:20 PM,51.8,48.2,88,29.53,6.2,South,11.5,-,N/A,Rain,Light Rain Showers,180,2012-10-15 21:20:00
10:50 PM,51.8,48.2,88,29.53,6.2,South,9.2,-,N/A,Rain,Light Rain Showers,180,2012-10-15 21:50:00
11:20 PM,51.8,50.0,94,29.50,6.2,South,9.2,-,N/A,Rain,Rain,170,2012-10-15 22:20:00
11:50 PM,51.8,50.0,94,29.47,6.2,South,10.4,-,N/A,Rain,Light Rain,170,2012-10-15 22:50:00